Date String (YYYY-MM-DD hh:mm:ss) UTC,Instrument flags,Ambient pressure (hPa),Sample flow (lpm),Bypass flow (lpm),Sample temperature (°C),Ambient temperature (°C),ASC tube jacket temperature (°C),LED temperature (°C),Box temperature (°C),Sample RH (%),Span deviation,Mass concentration (μg/m³),Mass concentration (μg/m³),Mass concentration (μg/m³)
DateTimeUTC,F1_M11,P_M11,Q1_M11,Q2_M11,T1_M11,T2_M11,T3_M11,T4_M11,T5_M11,U1_M11,ZSPAN_M11,X0_M11,X2_M11,X1_M11
2022-04-18 01:00:00,,0826.9,5.00,0.00,27.0,26.4,00.0,35.8,28.9,11.7,0000.0,0020.26,0006.78,0002.45
2022-04-18 01:01:00,,0826.9,5.01,0.00,27.0,26.4,00.0,35.8,28.9,11.7,0000.0,0020.51,0006.79,0002.49
2022-04-18 01:02:00,,0827.0,4.99,0.00,27.0,26.3,00.0,35.8,28.8,11.7,0000.0,0020.35,0006.81,0002.50
2022-04-18 01:03:00,,0827.0,5.01,0.00,27.0,26.4,00.0,35.8,28.9,11.7,0000.0,0020.50,0006.81,0002.49
2022-04-18 01:04:00,,0827.0,4.99,0.00,27.0,26.4,00.0,35.8,28.9,11.7,0000.0,0021.68,0006.82,0002.50
2022-04-18 01:05:00,,0827.0,5.01,0.00,27.1,26.4,00.0,35.8,28.9,11.7,0000.0,0022.08,0006.84,0002.48
2022-04-18 01:06:00,,0827.1,5.01,0.00,27.1,26.4,00.0,35.8,28.9,11.9,0000.0,0022.21,0006.78,0002.48
2022-04-18 01:07:00,,0827.2,5.00,0.00,27.1,26.4,00.0,35.9,28.9,11.8,0000.0,0022.32,0006.71,0002.47
2022-04-18 01:08:00,,0827.1,4.99,0.00,27.1,26.4,00.0,35.9,28.9,11.8,0000.0,0023.59,0006.77,0002.48
2022-04-18 01:09:00,,0827.1,5.00,0.00,27.0,26.4,00.0,35.9,28.9,12.0,0000.0,0024.06,0006.85,0002.49
2022-04-18 01:10:00,,0827.1,5.00,0.00,27.0,26.4,00.0,35.9,28.8,12.1,0000.0,0024.38,0006.87,0002.45
2022-04-18 01:11:00,,0827.1,5.02,0.00,27.0,26.4,00.0,35.9,28.8,12.0,0000.0,0023.57,0006.73,0002.38
2022-04-18 01:12:00,,0827.1,5.00,0.00,27.0,26.3,00.0,35.9,28.8,12.1,0000.0,0023.59,0006.65,0002.34
2022-04-18 01:13:00,,0827.2,5.01,0.00,27.0,26.3,00.0,35.9,28.8,11.9,0000.0,0023.86,0006.62,0002.33
2022-04-18 01:14:00,,0827.1,4.99,0.00,27.0,26.2,00.0,35.9,28.8,11.9,0000.0,0023.74,0006.60,0002.32
2022-04-18 01:15:00,,0827.1,5.00,0.00,27.0,26.2,00.0,35.9,28.7,11.9,0000.0,0022.49,0006.64,0002.32
2022-04-18 01:16:00,,0827.1,5.00,0.00,27.0,26.2,00.0,35.9,28.8,11.9,0000.0,0022.19,0006.65,0002.33
2022-04-18 01:17:00,,0827.6,5.01,0.00,27.0,26.2,00.0,35.9,28.8,11.9,0000.0,0022.56,0006.67,0002.30
2022-04-18 01:18:00,,0827.5,5.01,0.00,27.0,26.3,00.0,35.9,28.8,11.9,0000.0,0022.26,0006.66,0002.28
2022-04-18 01:19:00,,0827.2,5.00,0.00,27.0,26.3,00.0,35.9,28.8,11.9,0000.0,0020.51,0006.65,0002.25
2022-04-18 01:20:00,,0827.3,5.00,0.00,27.0,26.3,00.0,35.9,28.8,12.0,0000.0,0019.68,0006.57,0002.22
2022-04-18 01:21:00,,0827.2,4.99,0.00,27.0,26.3,00.0,35.9,28.9,12.0,0000.0,0019.12,0006.40,0002.20
2022-04-18 01:22:00,,0827.3,4.99,0.00,27.0,26.3,00.0,35.9,28.9,12.0,0000.0,0019.34,0006.35,0002.21
2022-04-18 01:23:00,,0827.4,4.99,0.00,27.0,26.3,00.0,35.9,28.9,12.0,0000.0,0018.75,0006.30,0002.19
2022-04-18 01:24:00,,0827.4,5.01,0.00,27.0,26.4,00.0,35.9,28.9,12.1,0000.0,0017.84,0006.21,0002.16
2022-04-18 01:25:00,,0827.4,5.01,0.00,27.0,26.4,00.0,35.9,28.9,12.2,0000.0,0017.99,0006.10,0002.11
2022-04-18 01:26:00,,0827.4,5.01,0.00,27.0,26.4,00.0,35.9,28.9,12.2,0000.0,0017.75,0005.97,0002.06
2022-04-18 01:27:00,,0827.5,5.00,0.00,27.0,26.3,00.0,35.9,28.9,12.2,0000.0,0017.08,0005.76,0001.98
2022-04-18 01:28:00,,0827.5,5.00,0.00,27.0,26.3,00.0,35.9,28.9,12.3,0000.0,0016.53,0005.59,0001.93
2022-04-18 01:29:00,,0827.5,4.99,0.00,27.0,26.3,00.0,35.9,28.9,12.3,0000.0,0016.10,0005.50,0001.89
2022-04-18 01:30:00,,0827.4,5.00,0.00,27.0,26.3,00.0,35.9,28.8,12.3,0000.0,0015.44,0005.36,0001.85
2022-04-18 01:31:00,,0827.4,5.00,0.00,27.0,26.3,00.0,35.9,28.8,12.4,0000.0,0015.17,0005.16,0001.79
2022-04-18 01:32:00,,0827.4,4.99,0.00,27.0,26.3,00.0,35.9,28.8,12.4,0000.0,0014.99,0005.06,0001.76
2022-04-18 01:33:00,,0827.5,5.01,0.00,27.0,26.2,00.0,35.9,28.8,12.5,0000.0,0014.08,0004.97,0001.73
2022-04-18 01:34:00,,0827.4,5.01,0.00,27.0,26.2,00.0,35.9,28.8,12.4,0000.0,0013.47,0004.82,0001.69
2022-04-18 01:35:00,,0827.4,4.99,0.00,27.0,26.2,00.0,35.9,28.8,12.4,0000.0,0013.20,0004.73,0001.66
2022-04-18 01:36:00,,0827.6,5.00,0.00,27.0,26.2,00.0,35.9,28.8,12.5,0000.0,0012.47,0004.63,0001.64
2022-04-18 01:37:00,,0827.5,5.00,0.00,27.0,26.2,00.0,35.9,28.8,12.5,0000.0,0012.34,0004.58,0001.62
2022-04-18 01:38:00,,0827.4,5.01,0.00,27.0,26.2,00.0,35.9,28.8,12.6,0000.0,0012.81,0004.51,0001.60
2022-04-18 01:39:00,,0827.4,5.01,0.00,27.0,26.2,00.0,35.9,28.8,12.6,0000.0,0012.37,0004.47,0001.59
2022-04-18 01:40:00,,0827.4,5.00,0.00,27.0,26.2,00.0,35.9,28.7,12.6,0000.0,0012.28,0004.45,0001.57
2022-04-18 01:41:00,,0827.4,5.00,0.00,27.0,26.2,00.0,35.9,28.7,12.6,0000.0,0012.51,0004.46,0001.57
2022-04-18 01:42:00,,0827.4,4.99,0.00,27.0,26.2,00.0,35.9,28.7,12.6,0000.0,0012.24,0004.40,0001.56
2022-04-18 01:43:00,,0827.5,5.01,0.00,27.0,26.2,00.0,35.9,28.8,12.7,0000.0,0012.19,0004.35,0001.55
2022-04-18 01:44:00,,0827.5,4.99,0.00,27.0,26.2,00.0,35.9,28.7,12.7,0000.0,0012.54,0004.28,0001.52
2022-04-18 01:45:00,,0827.5,5.01,0.00,27.0,26.1,00.0,35.9,28.7,12.7,0000.0,0012.61,0004.26,0001.51
2022-04-18 01:46:00,,0827.5,5.02,0.00,27.0,26.1,00.0,35.9,28.8,12.7,0000.0,0012.84,0004.31,0001.52
2022-04-18 01:47:00,,0827.5,4.99,0.00,27.0,26.2,00.0,35.9,28.8,12.8,0000.0,0013.11,0004.33,0001.51
2022-04-18 01:48:00,,0827.5,5.00,0.00,27.0,26.2,00.0,35.9,28.8,12.8,0000.0,0013.96,0004.27,0001.48
2022-04-18 01:49:00,,0827.4,5.01,0.00,27.0,26.2,00.0,35.9,28.8,12.8,0000.0,0013.82,0004.26,0001.44
2022-04-18 01:50:00,,0827.4,4.99,0.00,27.0,26.1,00.0,35.9,28.8,12.9,0000.0,0013.64,0004.23,0001.41
2022-04-18 01:51:00,,0827.5,4.99,0.00,27.0,26.1,00.0,35.9,28.8,12.9,0000.0,0013.23,0004.12,0001.40
2022-04-18 01:52:00,,0827.4,4.99,0.00,27.0,26.1,00.0,35.9,28.7,12.9,0000.0,0012.86,0004.09,0001.40
2022-04-18 01:53:00,,0827.4,5.01,0.00,27.0,26.1,00.0,35.9,28.8,12.9,0000.0,0012.79,0004.06,0001.40
2022-04-18 01:54:00,,0827.5,5.00,0.00,27.0,26.1,00.0,35.9,28.7,13.0,0000.0,0012.75,0004.02,0001.37
2022-04-18 01:55:00,,0827.6,4.99,0.00,27.0,26.1,00.0,35.9,28.7,13.0,0000.0,0012.18,0004.02,0001.37
2022-04-18 01:56:00,,0827.6,4.99,0.00,26.9,26.0,00.0,35.9,28.7,13.0,0000.0,0012.03,0003.96,0001.36
2022-04-18 01:57:00,,0827.6,5.02,0.00,26.9,26.0,00.0,35.9,28.7,13.0,0000.0,0012.46,0003.80,0001.32
2022-04-18 01:58:00,,0827.6,5.01,0.00,26.9,26.0,00.0,35.9,28.7,13.0,0000.0,0012.09,0003.66,0001.31
2022-04-18 01:59:00,,0827.6,4.99,0.00,26.9,26.0,00.0,35.9,28.7,13.0,0000.0,0010.98,0003.57,0001.30
